Location: Newark
(27.2452°N, 107.0032°W)
Time: 11:14:11
(UTC+00:00)

Hubble Space Telescope - Visible Passes

Search period start: 16 December 2019 00:00
Search period end: 26 December 2019 00:00
Orbit: 536 x 540 km, 28.5° (Epoch: 15 December)

Date Brightness Start Highest point End Pass type
(mag) Time Alt. Az. Time Alt. Az. Time Alt. Az.
16 Dec 3.5 11:15:55 18° E 11:15:55 18° E 11:17:07 10° E visible
16 Dec 0.7 12:51:15 18° W 12:54:16 83° N 12:58:25 10° E visible
17 Dec 3.9 11:06:09 13° E 11:06:09 13° E 11:06:35 10° E visible
17 Dec 0.7 12:41:30 26° W 12:43:43 77° N 12:47:51 10° E visible
18 Dec 0.7 12:31:40 38° W 12:33:08 74° N 12:37:17 10° E visible
19 Dec 0.7 12:21:46 54° WNW 12:22:34 73° N 12:26:43 10° E visible
20 Dec 0.6 12:11:50 72° NNW 12:12:01 74° N 12:16:09 10° E visible
21 Dec 0.9 12:01:52 68° ENE 12:01:52 68° ENE 12:05:35 10° E visible
22 Dec 1.6 11:51:54 50° E 11:51:54 50° E 11:55:01 10° E visible
23 Dec 2.3 11:41:56 35° E 11:41:56 35° E 11:44:27 10° E visible
23 Dec 1.9 13:17:33 10° W 13:21:21 35° SSW 13:25:08 10° SE visible
24 Dec 2.9 11:31:59 26° ESE 11:31:59 26° ESE 11:33:51 10° ESE visible
24 Dec 2.2 13:07:19 11° W 13:10:42 28° SSW 13:14:16 10° SE visible
25 Dec 3.4 11:22:02 18° ESE 11:22:02 18° ESE 11:23:13 10° ESE visible
25 Dec 2.5 12:57:23 13° WSW 13:00:02 22° SSW 13:03:17 10° SSE visible
